Other Public Products
Issued by NWS Charleston, SC

Current Version | Previous Version | Graphics & Text | Print | Product List | Glossary On
Versions: 1 2 3 4 5 6 7 8 9 10 11 12 13 14 15 16 17 18 19 20 21 22 23 24 25 26 27 28 29 30 31 32 33 34 35 36 37 38 39 40 41 42 43 44 45 46 47 48 49 50
660 FPUS82 KCHS 191734 OPUCHS TEST...KCHS/KSAV Gateway Observations...TEST National Weather Service Charleston SC 100 PM EDT TUE SEP 19 2017 NOTE: "fair" indicates few or no clouds below 12,000 feet with no significant weather and/or obstructions to visibility. SCZ050-WAZ558-NCZ071-TXZ119-213-PAZ071-DCZ001-FLZ074-172-MI076- NYZ176-178-MAZ016-IL014-TNZ027-NJZ106-GAZ044-MD014-191800- ...Gateway Observations for Charleston International... CITY SKY/WX TMP DP RH WIND PRES REMARKS Chas Airport MOSUNNY 85 68 56 NW7 29.98F Seattle PTSUNNY 55 49 80 S14 29.75R Charlotte PTSUNNY 80 66 62 NW5 30.04F Dallas DFW MOSUNNY 88 73 61 S16 29.91F HX 95 Dallas Love MOSUNNY 88 72 58 S13G18 29.91F HX 94 Philladelphia PTSUNNY 77 64 64 NE15 29.94F Wash National PTSUNNY 80 68 66 NW14 29.98F Baltimore MOSUNNY 79 67 66 NW9 29.96F Miami MOSUNNY 90 73 57 W9 29.93F HX 98 Detroit RAIN 69 68 96 E6 30.01F FOG Newark CLOUDY 79 64 60 NE22G28 29.96F Laguardia CLOUDY 76 65 68 NE17G28 29.97F J F K PTSUNNY 77 63 61 NE24G32 29.96F Boston Logan LGT RAIN 64 64 100 N16 30.08F Ft. Lauderdale PTSUNNY 88 76 67 N7 29.92F HX 99 Chicago O`Hare CLOUDY 75 65 70 VRB5 29.95F Chicago Midway PTSUNNY 74 67 78 E5 29.95F Houston Bush PTSUNNY 88 75 65 SW6 29.97S HX 97 Houston Hobby MOSUNNY 90 74 59 S10 29.96F HX 99 Nashville PTSUNNY 81 70 69 NE8 30.00F Atlanta MOSUNNY 85 63 47 VRB3 30.04F $$ GAZ044-118-TXZ119-213-NCZ071-DCZ001-MDZ014-506-PAZ021-071-NJZ106- NYZ176-178-MAZ106-OHZ011-021-055-MIZ076-KYZ091-ILZ014-INZ047- MNZ060-ONZ431-191800- ...Gateway Observations for Savannah International... CITY SKY/WX TMP DP RH WIND PRES REMARKS Savannah Arpt MOSUNNY 89 68 49 W6 30.00F HX 93 Atlanta MOSUNNY 85 63 47 VRB3 30.04F Charlotte PTSUNNY 80 66 62 NW5 30.04F Dallas DFW MOSUNNY 88 73 61 S16 29.91F HX 95 Houston Bush PTSUNNY 88 75 65 SW6 29.97S HX 97 Wash National PTSUNNY 80 68 66 NW14 29.98F Wash Dulles MOSUNNY 78 66 66 N12 29.99F Baltimore MOSUNNY 79 67 66 NW9 29.96F Philadelphia PTSUNNY 77 64 64 NE15 29.94F Newark CLOUDY 79 64 60 NE22G28 29.96F Laguardia CLOUDY 76 65 68 NE17G28 29.97F J F K PTSUNNY 77 63 61 NE24G32 29.96F Boston LGT RAIN 64 64 100 N16 30.08F Pittsburg MOSUNNY 78 63 59 S3 30.03F Akron CLOUDY 79 62 56 W9 30.02F Cleveland CLOUDY 77 64 64 S10 30.03S Cincinnati LGT RAIN 68 68 100 SW5 30.01F Columbus CLOUDY 74 65 75 W14 30.01S Detroit RAIN 69 68 96 E6 30.01F FOG Chicago O`Hare CLOUDY 75 65 70 VRB5 29.95F Minneapolis PTSUNNY 72 64 76 SE12 29.88F Indianapolis CLOUDY 73 67 81 W8 29.97S Toronto Canada PTSUNNY 79 68 69 SE7 30.02F $$

USA.gov is the U.S. government's official web portal to all federal, state and local government web resources and services.